Regional Weather Roundup
Issued by NWS

Home | Current Version | Previous Version | Graphics & Text | Print | Product List | Glossary On
Versions: 1 2 3 4 5 6 7 8 9 10 11 12 13 14 15 16 17 18 19 20 21 22 23 24 25 26 27 28 29 30 31 32 33 34 35 36 37 38 39 40 41 42 43 44 45 46 47 48 49 50
000
ASUS45 KPSR 281200
RWRAZ

PRELIMINARY ARIZONA REGIONAL HOURLY WEATHER ROUNDUP
NATIONAL WEATHER SERVICE PHOENIX AZ
500 AM MST SUN DEC 28 2014

NOTE: FAIR INDICATES FEW OR NO CLOUDS BELOW 12,000 FEET WITH NO
SIGNIFICANT WEATHER AND/OR OBSTRUCTIONS TO VISIBILITY.

AZZ001>003-036-281300-
NORTHWEST ARIZONA

CITY           SKY/WX    TMP DP  RH WIND       PRES   REMARKS
KINGMAN        PTCLDY    19  12  74 CALM      30.24F
6HR MIN TEMP:  19; 6HR MAX TEMP:  24;

$$

AZZ004>008-015-016-018-281300-
NORTH CENTRAL ARIZONA

CITY           SKY/WX    TMP DP  RH WIND       PRES   REMARKS
GRAND CANYON   PTCLDY     6   2  83 E3        30.20F
6HR MIN TEMP:   5; 6HR MAX TEMP:  10;

PRESCOTT       PTCLDY    19   9  65 S6        30.23F WCI  11
6HR MIN TEMP:  18; 6HR MAX TEMP:  24;

FLAGSTAFF      NOT AVBL
PAYSON         CLEAR     27   7  43 E5        30.23F WCI  21
PAGE           CLEAR     24   8  50 CALM      30.21F
6HR MIN TEMP:  24; 6HR MAX TEMP:  30;

$$

AZZ009>014-017-281300-
NORTHEAST ARIZONA

CITY           SKY/WX    TMP DP  RH WIND       PRES   REMARKS
WINSLOW        NOT AVBL
SAINT JOHNS    PTCLDY    14  10  84 N6        30.21S WCI   5
6HR MIN TEMP:  14; 6HR MAX TEMP:  20;

WINDOW ROCK    MOCLDY     1  -5  75 S3        30.19F
6HR MIN TEMP:   1; 6HR MAX TEMP:   8;

$$

AZZ023-281300-
GREATER PHOENIX AREA

CITY           SKY/WX    TMP DP  RH WIND       PRES   REMARKS
PHOENIX        CLEAR     38  25  59 E3        30.25F
6HR MIN TEMP:  38; 6HR MAX TEMP:  46;

LUKE AFB       CLEAR     33  22  61 CALM      30.25F
6HR MIN TEMP:  33; 6HR MAX TEMP:  46;

DEER VALLEY    CLEAR     35  19  52 CALM      30.24F
6HR MIN TEMP:  32; 6HR MAX TEMP:  42;

SCOTTSDALE     CLEAR     34  22  61 CALM      30.26F
6HR MIN TEMP:  34; 6HR MAX TEMP:  42;

MESA-GATEWAY   CLEAR     32  21  64 E6        30.28S WCI  26
$$

AZZ027-028-281300-
SOUTHWEST MARICOPA COUNTY AND PINAL COUNTY

CITY           SKY/WX    TMP DP  RH WIND       PRES   REMARKS
CASA GRANDE    CLEAR     28  19  69 CALM      30.26F
6HR MIN TEMP:  28; 6HR MAX TEMP:  37;

$$

AZZ503-504-507>509-281300-
SOUTHEAST ARIZONA

CITY           SKY/WX    TMP DP  RH WIND       PRES   REMARKS
TUCSON           N/A    N/A N/A N/A MISG      30.25F
DAVIS-MONTHAN  CLEAR     33  22  64 SE8       30.22F WCI  26
6HR MIN TEMP:  29; 6HR MAX TEMP:  33;

NOGALES        CLEAR     23  13  65 CALM      30.20F
6HR MIN TEMP:  22; 6HR MAX TEMP:  35;

SIERRA VISTA   CLEAR     29  14  53 E6        30.21F WCI  23
6HR MIN TEMP:  26; 6HR MAX TEMP:  32;

SAFFORD        CLEAR     23  19  85 CALM      30.26F
6HR MIN TEMP:  23; 6HR MAX TEMP:  32;

$$

AZZ020-021-025-026-031-281300-
SOUTHWEST ARIZONA

CITY           SKY/WX    TMP DP  RH WIND       PRES   REMARKS
YUMA           CLEAR    N/A N/A N/A CALM      30.27F
$$

CAZ031-033-041-043-047-048-061-281300-
SOUTHERN CALIFORNIA

CITY           SKY/WX    TMP DP  RH WIND       PRES   REMARKS
DOWNTOWN L.A.  CLEAR     45  22  40 CALM      30.27F
6HR MIN TEMP:  45; 6HR MAX TEMP:  49;

L.A. AIRPORT   PTCLDY    44  23  43 NE7       30.27F
6HR MIN TEMP:  43; 6HR MAX TEMP:  51;

SAN DIEGO      CLEAR     46  21  37 CALM      30.28F
6HR MIN TEMP:  46; 6HR MAX TEMP:  53;

BURBANK        CLEAR     40  24  53 CALM      30.25F
6HR MIN TEMP:  39; 6HR MAX TEMP:  47;

ONTARIO        PTCLDY    40  24  53 N3        30.25F
6HR MIN TEMP:  37; 6HR MAX TEMP:  46;

RIVERSIDE      PTCLDY    37  22  54 E5        30.26F WCI  33
6HR MIN TEMP:  36; 6HR MAX TEMP:  46;

PALM SPRINGS   CLEAR     40  18  41 NW6       30.30F
6HR MIN TEMP:  38; 6HR MAX TEMP:  48;

EL CENTRO NAS  CLEAR     33  13  43 W7        30.29F WCI  27
6HR MIN TEMP:  33; 6HR MAX TEMP:  40;

IMPERIAL       CLEAR     34  15  46 W7        30.29F WCI  28
6HR MIN TEMP:  34; 6HR MAX TEMP:  40;

BLYTHE         CLEAR     36  15  42 W3        30.30F
6HR MIN TEMP:  36; 6HR MAX TEMP:  46;

$$

NVZ020-UTZ003-281300-
SOUTHERN NEVADA-UTAH

CITY           SKY/WX    TMP DP  RH WIND       PRES   REMARKS
LAS VEGAS      NOT AVBL
SALT LAKE CITY CLOUDY    26  16  65 SE12      30.10F WCI  16
6HR MIN TEMP:  25; 6HR MAX TEMP:  26;

$$

NMZ009-TXZ055-281300-
NEW MEXICO-WEST TEXAS

CITY           SKY/WX    TMP DP  RH WIND       PRES   REMARKS
ALBUQUERQUE    PTCLDY    17   9  70 S5        30.20F WCI  10
6HR MIN TEMP:  16; 6HR MAX TEMP:  25;

EL PASO        CLEAR     28  25  88 S3        30.22F
6HR MIN TEMP:  27; 6HR MAX TEMP:  34;

$$


........................KEY........................
SKY/WX - SKY CONDITION/WEATHER
TMP    - TEMPERATURE IN FAHRENHEIT
DP     - DEW POINT IN FAHRENHEIT
RH     - RELATIVE HUMIDITY IN PERCENT
WIND   - DIRECTION AND SPEED IN MILES PER HOUR (MPH)
VRB    - VARIABLE WIND DIRECTION
PRES   - MEAN SEA LEVEL PRESSURE IN INCHES OF MERCURY
         F - FALLING PRESSURE   R - RISING PRESSURE
         S - STEADY PRESSURE
VSB    - VISIBILITY IN MILES
HX     - HEAT INDEX IN FAHRENHEIT
WCI    - WIND CHILL INDEX IN FAHRENHEIT
TC     - TEMPERATURE IN CELSIUS WHICH IS ALSO KNOWN AS
         TEMPERATURE IN CENTIGRADE
AFB    - AIR FORCE BASE
         LUKE AFB IS LUKE AIR FORCE BASE
         DAVIS-MONTHAN IS DAVIS-MONTHAN AIR FORCE BASE
NAS    - NAVAL AIR STATION
         EL CENTRO NAS IS EL CENTRO NAVAL AIR STATION
N/A    - NOT AVAILABLE


USA.gov is the U.S. government's official web portal to all federal, state and local government web resources and services.